Prévision chaque heure sur Domdidier


  Conditions Température Point de rosée PrécipitationHauteur de neige Vent Pression UV Index Couverture nuageuse Visibilité
 08:00     16:44   La longueur du jour: 8:44 Aujourd'hui
17:00 3 °
Sensation de: -2.3°
2.9° 4.8 mm  
3
Max: 16 km/h
991.8 hPa   100% 6.7 km
18:00 4 °
Sensation de: -1.9°
2.8°    
3
Max: 14 km/h
992.0 hPa   100% 13 km
19:00 3 °
Sensation de: -2.4°
2.5° 3.6 mm 0 cm
2
Max: 12 km/h
992.0 hPa   100% 0.9 km
20:00 3 °
Sensation de: -2.4°
2.4° 1.0 mm  
2
Max: 10 km/h
992.0 hPa   100% 9.1 km
21:00 3 °
Sensation de: -1.9°
2.5°    
2
Max: 9 km/h
992.4 hPa   100% 12 km
22:00 2 °
Sensation de: -2.1°
2.1° 3.8 mm 0 cm
1
Max: 7 km/h
992.8 hPa   100% 1.0 km
23:00 2 °
Sensation de: -1.9°
2.1° 1.0 mm 0 cm
1
Max: 6 km/h
993.0 hPa   100% 11 km
 08:01     16:44   La longueur du jour: 8:43 Demain
00:00 3 °
Sensation de: -1.7°
2.2°    
1
Max: 6 km/h
993.4 hPa   100% 13 km
01:00 2 °
Sensation de: -2.1°
2.1° 2.6 mm 0 cm
1
Max: 5 km/h
993.8 hPa   100% 1.6 km
02:00 2 °
Sensation de: -1.2°
2.1° 0.7 mm  
0
Max: 5 km/h
994.4 hPa   100% 12 km
03:00 3 °
Sensation de: -2.0°
2.1°    
2
Max: 10 km/h
994.8 hPa   100% 15 km
04:00 2 °
Sensation de: -4.0°
2.2° 1.6 mm  
4
Max: 15 km/h
995.4 hPa   100% 1.9 km
05:00 3 °
Sensation de: -4.9°
2.3° 0.5 mm  
6
Max: 19 km/h
996.0 hPa   100% 8.8 km
06:00 3 °
Sensation de: -3.6°
2.3°    
5
Max: 19 km/h
996.8 hPa   100% 16 km
07:00 3 °
Sensation de: -3.1°
2.5° 0.7 mm  
4
Max: 17 km/h
997.8 hPa   100% 9.9 km
08:00 3 °
Sensation de: -2.1°
2.5° 0.3 mm  
3
Max: 15 km/h
998.6 hPa   100% 17 km
09:00 4 °
Sensation de: -1.6°
2.5°    
3
Max: 16 km/h
999.0 hPa   100% 22 km
10:00 4 °
Sensation de: -1.7°
2.6°    
4
Max: 18 km/h
999.0 hPa   100% 23 km
11:00 5 °
Sensation de: -1.2°
2.6°    
4
Max: 20 km/h
998.8 hPa   100% 24 km
12:00 5 °
Sensation de: 0.2°
2.7°    
3
Max: 19 km/h
998.4 hPa   99% 24 km
13:00 6 °
Sensation de: 0.9°
2.6°    
3
Max: 16 km/h
998.0 hPa   100% 24 km
14:00 7 °
Sensation de: 2.3°
2.6°    
2
Max: 13 km/h
998.0 hPa   100% 24 km
15:00 7 °
Sensation de: 1.9°
2.5°    
3
Max: 15 km/h
998.0 hPa   100% 24 km
16:00 7 °
Sensation de: 1.9°
2.5°    
3
Max: 18 km/h
998.4 hPa   100% 24 km
17:00 6 °
Sensation de: 0.6°
2.4°    
4
Max: 18 km/h
998.8 hPa   100% 24 km
18:00 6 °
Sensation de: 0.3°
2.4°    
4
Max: 19 km/h
999.4 hPa   100% 24 km
19:00 6 °
Sensation de: -0.7°
2.4°    
5
Max: 20 km/h
999.8 hPa   100% 24 km
20:00 6 °
Sensation de: -0.9°
2.4°    
5
Max: 21 km/h
1000.0 hPa   100% 24 km
21:00 6 °
Sensation de: -0.9°
2.4°    
5
Max: 21 km/h
1000.0 hPa   100% 24 km
22:00 6 °
Sensation de: -0.9°
2.6°    
5
Max: 21 km/h
1000.0 hPa   100% 23 km
23:00 6 °
Sensation de: -0.7°
2.6°    
5
Max: 21 km/h
1000.0 hPa   100% 24 km
 08:02     16:44   La longueur du jour: 8:42 Dimanche 06 Déc
00:00 6 °
Sensation de: 0.1°
2.7°    
4
Max: 20 km/h
1000.0 hPa   100% 24 km
01:00 5 °
Sensation de: 0.9°
3.1° 0.5 mm  
2
Max: 17 km/h
1000.0 hPa   100% 19 km
02:00 6 °
Sensation de: 2.4°
3.1°    
0
Max: 8 km/h
1000.0 hPa   100% 23 km
03:00 6 °
Sensation de: 2.5°
3.1°    
0
Max: 5 km/h
999.8 hPa   100% 23 km
04:00 5 °
Sensation de: 1.4°
3.6° 1.0 mm  
0
Max: 5 km/h
999.4 hPa   100% 12 km
05:00 5 °
Sensation de: 1.4°
3.6° 0.3 mm  
0
Max: 5 km/h
999.2 hPa   100% 19 km
06:00 5 °
Sensation de: 1.6°
3.6°    
0
Max: 5 km/h
999.6 hPa   100% 21 km
07:00 4 °
Sensation de: 0.7°
3.8° 1.5 mm  
0
Max: 5 km/h
1000.2 hPa   100% 6.6 km
08:00 4 °
Sensation de: 0.8°
3.9° 0.5 mm  
0
Max: 5 km/h
1000.6 hPa   100% 12 km
09:00 4 °
Sensation de: 1.1°
3.9°    
0
Max: 5 km/h
1000.6 hPa   100% 14 km
10:00 4 °
Sensation de: 0.3°
4.0° 0.7 mm  
1
Max: 5 km/h
1000.0 hPa   100% 8.5 km
11:00 5 °
Sensation de: 0.6°
4.0°    
1
Max: 6 km/h
999.4 hPa   100% 13 km
12:00 5 °
Sensation de: 1.1°
4.0°    
1
Max: 7 km/h
998.6 hPa   100% 17 km
13:00 5 °
Sensation de: 1.1°
4.1° 0.6 mm  
1
Max: 7 km/h
997.8 hPa   100% 14 km
14:00 5 °
Sensation de: 1.5°
4.1°    
1
Max: 8 km/h
996.8 hPa   100% 18 km
15:00 6 °
Sensation de: 2.0°
4.1°    
1
Max: 8 km/h
996.2 hPa   100% 22 km
16:00 4 °
Sensation de: 0.3°
3.6° 3.5 mm 0 cm
0
Max: 5 km/h
996.0 hPa   100% 1.0 km